Regional Weather Roundup
Issued by NWS

Home | Current Version | Previous Version | Graphics & Text | Print | Product List | Glossary On
Versions: 1 2 3 4 5 6 7 8 9 10 11 12 13 14 15 16 17 18 19 20 21 22 23 24 25 26 27 28 29 30 31 32 33 34 35 36 37 38 39 40 41 42 43 44 45 46 47 48 49 50
443
ASUS43 KLOT 210208
RWRIL

ILLINOIS REGIONAL WEATHER ROUNDUP
NATIONAL WEATHER SERVICE CHICAGO/ROMEOVILLE IL
900 PM CDT FRI APR 20 2018

NOTE: "FAIR" INDICATES FEW OR NO CLOUDS BELOW 12,000 FEET WITH NO
SIGNIFICANT WEATHER AND/OR OBSTRUCTIONS TO VISIBILITY.

* THESE STATIONS ARE NOT UNDER NWS QUALITY CONTROL. THEY ALSO MAY NOT
  REPORT WEATHER SUCH AS PRECIPITATION OR FOG.

ILZ001-002-007-009-015-016-024-210300-
NORTHWEST ILLINOIS

CITY           SKY/WX    TMP DP  RH WIND       PRES   REMARKS
MOLINE         FAIR      49  28  44 CALM      30.39R
STERLING*      FAIR      50  26  39 CALM      30.42R
SAVANNA*       FAIR      49  29  46 E5        30.42R
$$

ILZ003-004-008-010-011-017-018-210300-
NORTH CENTRAL ILLINOIS

CITY           SKY/WX    TMP DP  RH WIND       PRES   REMARKS
ROCKFORD       CLOUDY    48  24  39 E5        30.44S
FREEPORT*      FAIR      47  29  50 CALM      30.44R
ROCHELLE*      FAIR      44  32  62 E3        30.43R
DE KALB*       FAIR      45  25  45 E7        30.44R
PERU*          FAIR      53  25  33 E5        30.42R
$$

ILZ005-006-012>014-019>023-210300-
NORTHEAST ILLINOIS

CITY           SKY/WX    TMP DP  RH WIND       PRES   REMARKS
CHICAGO-OHARE  MOCLDY    49  11  21 E6        30.44R
CHICAGO-MIDWAY MOCLDY    48  13  24 E5        30.44R
AURORA         FAIR      47  18  31 NE5       30.43R
LANSING*       FAIR      47  21  36 CALM      30.44S
JOLIET*        FAIR      50  15  25 E6        30.43R
WAUKEGAN       FAIR      35  17  47 CALM      30.45R
DUPAGE AIRPORT FAIR      48  13  24 E5        30.43R
KANKAKEE*      FAIR      45  21  39 E8        30.43R
WHEELING       FAIR      47  14  26 CALM      30.46R
MORRIS*        FAIR      49  18  28 E6        30.42R
ROMEOVILLE*    FAIR      46  19  34 E7        30.43S
NORTHERLY ISL    N/A     41  27  57 NW1         N/A
$$

LMZ740>746-210300-
SOUTHERN LAKE MICHIGAN

STATION/POSITION SKY/WX   TEMP    WIND        PRES    VSBY  WAVE
                          AIR SEA DIR/SP/G                  HT/PER
                          (F)     (DEG/KT/KT) (MB)    (MI)  (FT/S)
HARRISON CRIB              43     120/  2/  2   N/A
BURNHAM HARBOR             43     350/  2       N/A
CALUMET HARBOR             42      50/  1/  3 1030.3R
BURNS HARBOR               43      80/  7/  8 1031.2R
MICHIGAN CITY              43      40/  6/  7   N/A
$$

ILZ025>027-034>036-040-047-049-050-058-095>099-210300-
WEST-CENTRAL ILLINOIS

CITY           SKY/WX    TMP DP  RH WIND       PRES   REMARKS
QUINCY         MOCLDY    53  20  27 E6        30.36R
GALESBURG*     FAIR      54  24  32 CALM      30.40R
MACOMB*        PTCLDY    47  26  43 E3        30.40R
JACKSONVILLE*  CLOUDY    46  24  42 E6        30.37R
PITTSFIELD*    CLOUDY    53  24  32 E3        30.37R
$$

ILZ028>032-037-038-041>044-048-051>054-059>061-210300-
CENTRAL ILLINOIS

CITY           SKY/WX    TMP DP  RH WIND       PRES   REMARKS
PONTIAC        FAIR      48  29  48 E10       30.42S
BLOOMINGTON    FAIR      50  22  33 SE7       30.41R
DECATUR        FAIR      44  27  51 E6        30.39R
PEORIA         FAIR      52  25  35 E3        30.40R
LACON*         FAIR      50  26  39 E6        30.40R
LINCOLN*       FAIR      50  28  43 E5        30.39S
SPRINGFIELD    FAIR      52  23  32 E6        30.38S
TAYLORVILLE    FAIR      51  24  34 E5        30.38S
$$

ILZ033-039-045-046-055>057-062-063-210300-
EAST-CENTRAL ILLINOIS

CITY           SKY/WX    TMP DP  RH WIND       PRES   REMARKS
CHAMPAIGN      FAIR      48  23  37 NE6       30.40R
DANVILLE*      FAIR      50  24  37 E3        30.39R
RANTOUL*       FAIR      50  28  41 E7        30.41R
MATTOON        FAIR      50  26  39 NE6       30.38R
PARIS*         FAIR      50  26  38 NE5       30.41R
$$

ILZ079-100>102-210300-
SOUTHWEST ILLINOIS

CITY           SKY/WX    TMP DP  RH WIND       PRES   REMARKS
ALTON          PTCLDY    50  28  43 E6        30.35F
BELLEVILLE     CLOUDY    54  28  37 E7        30.34R
CAHOKIA*       CLOUDY    51  26  37 E7        30.34S
SPARTA*        CLOUDY    49  34  55 E8        30.35S
$$

ILZ064>066-069>071-074>076-080>082-084>086-088>090-092>094-210300-
SOUTH-CENTRAL ILLINOIS

CITY           SKY/WX    TMP DP  RH WIND       PRES   REMARKS
CARBONDALE     FAIR      53  28  38 NE5       30.34R
CAIRO*         FAIR      54  33  45 NE3       30.31S
EFFINGHAM*     FAIR      48  33  55 CALM      30.39R
MARION         FAIR      49  31  50 N3        30.35R
MT. VERNON       N/A     45  33  63 CALM      30.36R
CENTRALIA*     CLOUDY    49  36  58 CALM      30.35S
SALEM*         FAIR      53  28  38 CALM      30.36R
METROPOLIS*    FAIR      55  31  38 NE3       30.32S
$$

ILZ067-068-072-073-078-083-087-091-210300-
SOUTHEAST ILLINOIS

CITY           SKY/WX    TMP DP  RH WIND       PRES   REMARKS
LAWRENCEVILLE  FAIR      52  30  43 NE8       30.37R
FLORA*         FAIR      55  29  37 N5        30.37R
FAIRFIELD*     FAIR      52  26  35 CALM      30.35R
HARRISBURG*    FAIR      49  35  58 CALM      30.34S
ROBINSON*      FAIR      50  25  37 NE6       30.39S
CARMI*         FAIR      47  36  63 N3        30.34S
$$

ABBREVIATIONS USED IN REMARKS
   TC - TEMPERATURE IN CELSIUS
  WCI - WIND CHILL INDEX
   HX - HEAT INDEX
  VSB - VISIBILITY
$$





USA.gov is the U.S. government's official web portal to all federal, state and local government web resources and services.